NIMBUS 2 DEB

Satellite information

Favourite Embed

Satellite Type and Status

DEBRISIN ORBIT

Key statistics

Satellite NIMBUS 2 DEB at a glance.

Uptime

21543

Days in orbit

Revolutions

≈ 13.9

Per day

Orbit

SSO

Sun Synchronous Orbit

Inclination

100.3

Latest

Satellite identification and parameters

Extended collection of information and parameters for NIMBUS 2 DEB.

Object identification

Identified? True

Debris? True

Object name: NIMBUS 2 DEB

International designator: 1966-040K

Object number (NORAD): 26670

Object ID (CCSDS): 26670

Country: UNITED STATES OF AMERICA (US)

Current information (Y/N): Y

RCS size: SMALL

Orbital parameters

Period: 103.356 minutes

Inclination: 100.3054 deg

SMA: 7295.429 km

Apoapsis: 940.966 km

Periapsis: 893.622 km

RAAN: 271.7929 deg

Eccentricy: 0.0032448

Argument of periapsis: 76.4485 deg

Mean anomaly: 313.3001 deg

Mean motion: 13.93241916 rev/day

Mean motion (dot): 0.0000626 rev/day2

B* drag term: 0.0048129 1/REarth

Two-line elements (TLE)

Creation date: May 8, 2025, 3:01 a.m.

Reference frame: TEME

Reference center: EARTH

Epoch: May 7, 2025, 8:31 a.m. UTC

TLE line 0: 0 NIMBUS 2 DEB

TLE line 1: 1 26670U 66040K 25127.35534714 .00006260 00000-0 48129-2 0 9996

TLE line 2: 2 26670 100.3054 271.7929 0032448 76.4485 313.3001 13.93241916893974

Live tracking on map

Real-time ground track for satellite NIMBUS 2 DEB.

In-orbit conjunctions

A list of the most updated potential collisions computed for object NIMBUS 2 DEB.

Target Orbit TCA Probability of collision Miss distance Type
COSMOS 1299 LEO 2024-07-04 17:21:56 0.0002250638 302.0 (m) PAYLOAD
COSMOS 1308 LEO 2024-06-23 03:59:41 0.0003204606 406.0 (m) PAYLOAD

Associated space launch

Nimbus 2, the second in a series of second-generation meteorological research-and-development satellites, added an additional medium-resolution infrared radiometer (MRIR) compared to Nimbus 1.

NIMBUS 2 DEB was lifted into orbit during the mission ‘Thor SLV-2A Agena B | Nimbus 2’, on board a Thor SLV-2A Agena B space rocket.

The launch took place on May 15, 1966, 7:55 a.m. from Space Launch Complex 2E.

For more information about the launch, click the button.

Launch to space Thor SLV-2A Agena B | Nimbus 2
Thor SLV-2A Agena B | Nimbus 2

Agency: N/A

Status: Launch Successful

Launch date: May 15, 1966, 7:55 a.m. UTC

Rocket: Thor SLV-2A Agena B

Launch pad: Space Launch Complex 2E

Location: Vandenberg SFB, CA, USA

...

Latest news about this satellite

There are no fresh news available about this satellite. Check back as we update our databases every day.


Newsletter sign-up

Weekly statistics, charts and insights to help you stay on top of the space industry.